Alliance, NE

9:06 AM MDT on June 24, 2017 (GMT -0600)
Alliance Municipal

Weather History for KAIA - August, 2013

Change the Weather History Date:

Friday, August 23, 2013

  Actual Average Record
Temperature  
Mean Temperature 78 °F 69 °F  
Max Temperature 94 °F 85 °F 103 °F (2006)
Min Temperature 62 °F 53 °F 39 °F (1917)
Degree Days  
Heating Degree Days 0 1  
Month to date heating degree days 0 12  
Since 1 June heating degree days 70 117  
Since 1 July heating degree days 8 24  
Cooling Degree Days 13 5  
Month to date cooling degree days 163 157  
Year to date cooling degree days 559 489  
Since 1 June cooling degree days 537 479  
Growing Degree Days 28 (Base 50)    
Moisture  
Dew Point 61 °F    
Average Humidity 63    
Maximum Humidity 100    
Minimum Humidity 26    
Precipitation  
Precipitation 0.00 in 0.05 in 0.97 in (1944)
Month to date precipitation 2.34 1.26  
Year to date precipitation 9.06 11.97  
Sea Level Pressure  
Sea Level Pressure 29.93 in    
Wind  
Wind Speed 13 mph (SSE)    
Max Wind Speed 26 mph    
Max Gust Speed 30 mph    
Visibility 7 miles    
Events      
T = Trace of Precipitation, MM = Missing Value Source: NWS Daily Summary

Daily Weather History Graph

Daily Weather History Graph

Search for Another Location

Airport or City:

Trip Planner

Search our weather history database for the weather conditions in past years. The results will help you decide how hot, cold, wet, or windy it might be!

Date:

Astronomy

Aug. 23, 2013 Rise Set
Actual Time 6:07 AM MDT 7:39 PM MDT
Civil Twilight 5:38 AM MDT 8:08 PM MDT
Nautical Twilight 5:02 AM MDT 8:43 PM MDT
Astronomical Twilight 4:24 AM MDT 9:21 PM MDT
Moon 8:54 PM MDT (8/23) 9:09 AM MDT (8/23)
Length of Visible Light 14h 30m
Length of Day
13h 31m
Waning Gibbous, 91% of the Moon is Illuminated
Aug 23
Waning Gibbous
Aug 28
Last Quarter
Sep 5
New
Sep 12
First Quarter
Sep 19
Full

Hourly Weather History & Observations

Time (MDT) Temp. Heat Index Dew Point Humidity Pressure Visibility Wind Dir Wind Speed Gust Speed Precip Events Conditions
12:53 AM 63.0 °F - 61.0 °F 93% 30.02 in 7.0 mi ESE 5.8 mph - N/A   Clear
1:17 AM 62.6 °F - 60.8 °F 94% 30.14 in 5.0 mi SSE 6.9 mph - N/A   Scattered Clouds
1:25 AM 62.6 °F - 60.8 °F 94% 30.13 in 5.0 mi SSE 6.9 mph - N/A   Mostly Cloudy
1:53 AM 64.0 °F - 63.0 °F 96% 30.00 in 6.0 mi SSE 6.9 mph - N/A   Mostly Cloudy
2:53 AM 66.0 °F - 64.0 °F 93% 29.98 in 6.0 mi South 6.9 mph - N/A   Overcast
3:53 AM 64.9 °F - 63.0 °F 93% 29.96 in 5.0 mi SSE 8.1 mph - N/A   Mostly Cloudy
4:00 AM 64.4 °F - 62.6 °F 94% 30.10 in 5.0 mi SSE 6.9 mph - N/A   Scattered Clouds
4:49 AM 64.4 °F - 64.4 °F 100% 30.08 in 4.0 mi SSE 10.4 mph - N/A   Mostly Cloudy
4:53 AM 64.9 °F - 64.0 °F 97% 29.95 in 4.0 mi SSE 10.4 mph - N/A   Mostly Cloudy
5:38 AM 64.4 °F - 64.4 °F 100% 30.06 in 4.0 mi SSE 11.5 mph - N/A   Overcast
5:53 AM 64.9 °F - 63.0 °F 93% 29.94 in 3.0 mi SSE 11.5 mph - N/A   Overcast
6:26 AM 64.4 °F - 62.6 °F 94% 30.05 in 2.5 mi SE 11.5 mph - N/A   Overcast
6:35 AM 64.4 °F - 62.6 °F 94% 30.05 in 3.0 mi SE 8.1 mph - N/A   Overcast
6:53 AM 64.0 °F - 63.0 °F 96% 29.94 in 3.0 mi SE 9.2 mph - N/A   Mostly Cloudy
7:53 AM 66.0 °F - 64.0 °F 93% 29.93 in 4.0 mi SE 10.4 mph - N/A   Overcast
8:05 AM 66.2 °F - 64.4 °F 94% 30.04 in 5.0 mi SE 9.2 mph - N/A   Overcast
8:53 AM 66.9 °F - 64.0 °F 90% 29.96 in 6.0 mi SSE 11.5 mph - N/A   Overcast
9:42 AM 71.6 °F - 62.6 °F 73% 30.06 in 8.0 mi SSE 16.1 mph - N/A   Mostly Cloudy
9:53 AM 70.0 °F - 63.0 °F 78% 29.95 in 9.0 mi South 16.1 mph 20.7 mph N/A   Mostly Cloudy
10:19 AM 73.4 °F - 62.6 °F 69% 30.06 in 10.0 mi SSE 19.6 mph 23.0 mph N/A   Scattered Clouds
10:53 AM 77.0 °F - 62.1 °F 60% 29.92 in 10.0 mi SSE 17.3 mph - N/A   Clear
11:53 AM 82.9 °F 83.2 °F 60.1 °F 46% 29.91 in 10.0 mi South 18.4 mph 24.2 mph N/A   Clear
12:53 PM 87.1 °F 85.7 °F 55.9 °F 35% 29.88 in 10.0 mi South 20.7 mph 26.5 mph N/A   Clear
1:53 PM 89.1 °F 87.3 °F 55.9 °F 32% 29.83 in 10.0 mi South 16.1 mph 25.3 mph N/A   Clear
2:53 PM 91.9 °F 90.3 °F 55.9 °F 30% 29.80 in 10.0 mi SSE 15.0 mph 23.0 mph N/A   Partly Cloudy
3:53 PM 93.0 °F 90.6 °F 53.1 °F 26% 29.78 in 10.0 mi SSW 16.1 mph 24.2 mph N/A   Partly Cloudy
4:53 PM 91.9 °F - 52.0 °F 26% 29.76 in 10.0 mi SSW 15.0 mph 20.7 mph N/A   Clear
5:53 PM 89.1 °F 86.9 °F 54.0 °F 30% 29.76 in 10.0 mi South 9.2 mph - N/A   Clear
6:53 PM 84.0 °F 83.3 °F 57.0 °F 40% 29.75 in 10.0 mi SE 19.6 mph 28.8 mph N/A   Partly Cloudy
7:53 PM 81.0 °F 81.1 °F 57.9 °F 45% 29.77 in 10.0 mi SE 17.3 mph - N/A   Clear
8:53 PM 78.1 °F - 60.1 °F 54% 29.80 in 10.0 mi SSE 16.1 mph - N/A   Clear
9:53 PM 77.0 °F - 61.0 °F 58% 29.80 in 10.0 mi SSE 12.7 mph - N/A   Clear
10:53 PM 75.9 °F - 62.1 °F 62% 29.78 in 10.0 mi SSE 16.1 mph - N/A   Clear
11:53 PM 73.9 °F - 62.1 °F 66% 29.78 in 10.0 mi South 8.1 mph - N/A   Clear